Regional Weather Roundup
Issued by NWS Goodland, KS

Home | Current Version | Previous Version | Text Only | Print | Product List | Glossary Off
Versions: 1 2 3 4 5 6 7 8 9 10 11 12 13 14 15 16 17 18 19 20 21 22 23 24 25 26 27 28 29 30 31 32 33 34 35 36 37 38 39 40 41 42 43 44 45 46 47 48 49 50

000
ASUS43 KGLD 281959
RWRGLD

GOODLAND FORECAST AREA HOURLY WEATHER ROUNDUP
NATIONAL WEATHER SERVICE GOODLAND KS
100 PM MST WED JAN 28 2015

...OFFICIAL OBSERVATIONS...

CITY           SKY/WX    TMP DP  RH WIND       PRES   REMARKS
GOODLAND KS    SUNNY     66  26  22 NW36G45   29.92F
HILL CITY KS   SUNNY     71  31  22 NW26G40   29.82F
IMPERIAL NEB   SUNNY     64  30  27 NW26G38   29.88S
MCCOOK NEB     SUNNY     69  31  24 NW29G40   29.81F
AKRON CO       MOSUNNY   59  28  30 NW31G43   29.99F
BURLINGTON CO  SUNNY     63  28  26 NW29G35   29.97F
LIMON CO       SUNNY     59  19  21 NW30G37   30.02F
$$

...UNOFFICIAL OBSERVATIONS...

CITY           SKY/WX    TMP DP  RH WIND       PRES   REMARKS
COLBY KS       SUNNY     66  36  32 W32G43    29.90S
GOVE KS          N/A     68  32  26 MISG        N/A
NORTON KS      SUNNY     70  25  18 NW26G38   29.79S
SHARON SPRINGS   N/A     67  31  26 NW20G28     N/A
KIT CARSON CO    N/A     63  28  26 MISG        N/A
YUMA CO          N/A     61  29  30 N29G43      N/A
$$



USA.gov is the U.S. government's official web portal to all federal, state and local government web resources and services.